Find Starlink 4673

NORAD ID: 53589 Int'l Des: 2022-104 Owner: SPXS Country: US Constellation: starlink operational
LEOCIRCULAR

リアルタイム位置

3D地球を読み込み中...

Starlink 4673について

説明を読み込み中...

次回通過

Passes for default location (London). Set your location on the main map for personalized predictions.

高度履歴

Loading altitude history...

軌道要素

1 53589U 22104B 26129.82622029 .00001187 00000-0 92709-4 0 9998
2 53589 53.2180 329.7187 0001140 91.4925 268.6198 15.08825212205173
Epoch: May 9, 2026 • Age: 19 hours

現在のステータス

高度 543.2 km
速度 7.60 km/s
衛星直下点 42.08°N, 87.49°W
打ち上げ日 Aug 28, 2022
運用期間 3.6 years
タイプ internet

技術仕様

分類 Payload
質量 300.00 kg
乾燥質量 290.00 kg
総質量 300.00 kg
長さ 0.20 m
直径 2.80 m
スパン 9.00 m
形状 Box + pan
製造者 SPXS
バスタイプ Starlink
フェーズステータス In Orbit
所有者/国 SPXS/US

Most Searched